Miscellaneous Local Product
Issued by NWS North Platte, NE

Home | Current Version | Previous Version | Graphics & Text | Print | Product List | Glossary On
Versions: 1 2 3 4 5 6 7 8 9 10 11 12 13 14 15 16 17 18 19 20 21 22 23 24 25 26 27 28 29 30 31 32 33 34 35 36 37 38 39 40 41 42 43 44 45 46 47 48 49 50
000
AXUS43 KLBF 251710
MISLBF


WESTERN AND NORTH CENTRAL NEBRASKA HOURLY WEATHER ROUNDUP
NATIONAL WEATHER SERVICE NORTH PLATTE NE
1200 PM CDT WED MAR 25 2015

***STATIONS NOT REPORTING VARIABLES SUCH AS SKY/WEATHER OR
PRESSURE ARE PROVIDED BY THE NEBRASKA DEPARTMENT OF
ROADS...RAWS...AND APRS NETWORKS...AND ARE NOT UNDER
NATIONAL WEATHER SERVICE QUALITY CONTROL***

...OBSERVATIONS IN AND NEAR THE EASTERN PANHANDLE OF NEBRASKA...

CITY           SKY/WX    TMP DP  RH WIND       PRES   REMARKS
PINE RIDGE     CLOUDY    37  23  56 N10       30.22R WCI  30
CHADRON        CLOUDY    37  27  67 NE7       30.23R WCI  32
ALLIANCE       CLOUDY    36  25  64 N15       30.19R WCI  27
SIDNEY         CLOUDY    36  32  85 N15       30.18R WCI  27
WHITECLAY        N/A     34  22  61 W14         N/A  WCI  25
CRESCENT LAKE    N/A     34  24  66 N15G24      N/A  WCI  24
$$

...OBSERVATIONS IN NORTH CENTRAL NEBRASKA...

CITY           SKY/WX    TMP DP  RH WIND       PRES   REMARKS
VALENTINE      CLOUDY    37  22  54 N21G30    30.20R WCI  26
THEDFORD       CLOUDY    38  26  64 N20       30.18R WCI  27
AINSWORTH      CLOUDY    37  24  57 N24G33    30.18S WCI  26
O`NEILL        CLOUDY    40  26  57 NW26G35   30.15S WCI  30
ORD            CLOUDY    40  26  57 N18       30.16R WCI  31
BROKEN BOW     CLOUDY    41  26  55 N22       30.15R
BROWNLEE         N/A     38  26  61 SW22        N/A  WCI  28
VALENTINE NWR    N/A     35  24  63 N17G28      N/A  WCI  25
SPRINGVIEW       N/A     38  24  56 W18G31      N/A  WCI  28
BREWSTER         N/A     38  25  58 SW20        N/A  WCI  28
ROSE             N/A     38  27  66 SW21        N/A  WCI  27
NEWPORT          N/A     38  23  54 W17         N/A  WCI  29
SARGENT          N/A     39  27  62 N7G15       N/A  WCI  34
COMSTOCK         N/A     41  27  56 E14         N/A
EWING            N/A     40  30  67 NW12G21     N/A  WCI  33
$$

...OBSERVATIONS IN SOUTHWEST NEBRASKA AND FAR NORTHEAST COLORADO...

CITY           SKY/WX    TMP DP  RH WIND       PRES   REMARKS
WRAY           LGT RAIN  39  35  83 N18       30.17R WCI  30
HOLYOKE        LGT SNOW  36  34  93 N17       30.18R WCI  25
IMPERIAL         N/A     40  29  64 N21       30.16R WCI  30
OGALLALA       CLOUDY    37  27  68 N15G21    30.19R WCI  28
NORTH PLATTE   CLOUDY    38  26  62 N15G23    30.18R WCI  29
MCCOOK         LGT RAIN  41  31  67 NE16G26   30.14R
LEXINGTON      CLOUDY    40  29  64 N21       30.16R WCI  30
PAXTON           N/A     39  29  68 N13         N/A  WCI  31
SUTHERLAND       N/A     32  23  69 NE15        N/A  WCI  22
BRADY            N/A     39  27  62 CALM        N/A
GOTHENBURG       N/A     38  26  62 N12         N/A  WCI  30
CALLAWAY         N/A     36  28  73 N17         N/A  WCI  26
$$

...NORTH PLATTE AREA...

CITY           SKY/WX    TMP DP  RH WIND       PRES   REMARKS
AIRPORT        CLOUDY    38  26  62 N15G23    30.18R WCI  29
DOWNTOWN         N/A     37  25  63 N8G15       N/A  WCI  31
$$

...SOME WEATHER OBSERVATIONS FROM AROUND THE REGION...

CITY           SKY/WX    TMP DP  RH WIND       PRES   REMARKS
DENVER         CLOUDY    33  32  96 N20       30.16R WCI  21
LARAMIE        CLOUDY    29  23  78 N13       30.17R WCI  19
CHEYENNE       CLOUDY    32  22  66 NW16      30.18R WCI  21
SCOTTSBLUFF    PTSUNNY   42  30  62 N8        30.20R
RAPID CITY     PTSUNNY   38  23  55 NW32G40   30.21R WCI  25
PIERRE         CLOUDY    37  23  56 NW24G37   30.16S WCI  26
WINNER         CLOUDY    39  21  48 NW25G31   30.19R WCI  28
SIOUX FALLS    CLOUDY    39  26  59 NW24G36   30.09R WCI  28
OMAHA          CLOUDY    43  34  70 NW22G30   30.12R
GRAND ISLAND   CLOUDY    39  31  72 N21       30.15R WCI  29
KANSAS CITY    CLOUDY    45  42  89 NE10      30.07S
WICHITA        CLOUDY    63  46  54 NE16      29.90F
HAYS           CLOUDY    55  34  44 N25G32    30.01R
LIBERAL        MOSUNNY   63  37  39 NE14      29.90R
GOODLAND       CLOUDY    47  35  63 N17       30.09R
$$



USA.gov is the U.S. government's official web portal to all federal, state and local government web resources and services.